Terug naar catalogus

NOAA 16 DEB

ActiefSSO
NORAD 41062·DEBRIS·🇺🇸 United States

Gelanceerd Sep 21, 2000 vanaf Vandenberg Space Force Base

Loading…

Volgende Passages (komende 24 uur)

TLE

VersSource: Space-Track

Epoch: Sep 14, 2026, 12:54 UTC

1 41062U 00055V   26257.53778914  .00001535  00000-0  75764-3 0  9995
2 41062  98.6531 287.7224 0024246 294.4943  65.3705 14.18760233555738

Volg NOAA 16 DEB in realtime met AllMySat

Download on the App Store